This is the latest recevied weather packets stored in our database for station/object W2IRT. If no packets are shown the sender has not sent any weather packets the latest 10 day(s).
| Time | Temp. | Humidity | Pressure | Rain* | Wind** | Luminosity | Snow |
|---|---|---|---|---|---|---|---|
| 1778182217 | 17.78° C | 34% | 1007.4 hPa | 0 mm | - | - | - |
| 1778181917 | 17.78° C | 38% | 1007.5 hPa | 0 mm | - | - | - |
| 1778181617 | 18.33° C | 32% | 1007.5 hPa | 0 mm | - | - | - |
| 1778181317 | 17.78° C | 37% | 1007.5 hPa | 0 mm | - | - | - |
| 1778181017 | 17.78° C | 35% | 1007.5 hPa | 0 mm | - | - | - |
| 1778180717 | 17.78° C | 34% | 1007.7 hPa | 0 mm | - | - | - |
| 1778180417 | 17.78° C | 34% | 1007.8 hPa | 0 mm | - | - | - |
| 1778180117 | 17.78° C | 31% | 1007.7 hPa | 0 mm | - | - | - |
| 1778179817 | 17.78° C | 33% | 1007.9 hPa | 0 mm | - | - | - |
| 1778179517 | 17.78° C | 35% | 1008 hPa | 0 mm | - | - | - |
| 1778179217 | 17.78° C | 34% | 1007.9 hPa | 0 mm | - | - | - |
| 1778178917 | 17.78° C | 36% | 1008.1 hPa | 0 mm | - | - | - |
| 1778178617 | 17.78° C | 35% | 1008.1 hPa | 0 mm | - | - | - |
| 1778178317 | 17.22° C | 38% | 1008.1 hPa | 0 mm | - | - | - |
| 1778178017 | 17.22° C | 33% | 1008.2 hPa | 0 mm | - | - | - |
| 1778177717 | 17.22° C | 37% | 1008.3 hPa | 0 mm | - | - | - |
| 1778177417 | 17.22° C | 33% | 1008.4 hPa | 0 mm | - | - | - |
| 1778177116 | 16.67° C | 34% | 1008.4 hPa | 0 mm | - | - | - |
| 1778176817 | 17.22° C | 33% | 1008.6 hPa | 0.25 mm | - | - | - |
| 1778176517 | 17.22° C | 33% | 1008.6 hPa | 0.25 mm | - | - | - |
| 1778176217 | 17.22° C | 36% | 1008.6 hPa | 0.25 mm | - | - | - |
| 1778175917 | 17.22° C | 32% | 1008.6 hPa | 0.25 mm | - | - | - |
| 1778175617 | 17.22° C | 37% | 1008.7 hPa | 0.25 mm | - | - | - |
| 1778175332 | 17.22° C | 34% | 1008.8 hPa | 0.25 mm | - | - | - |
| 1778175017 | 17.22° C | 38% | 1008.9 hPa | 0.25 mm | - | - | - |
* Rain latest hour (hover to see other rain measurements)
** Current wind speed in m/s (hover to see current wind gust speed)